Regional Weather Roundup
Issued by NWS Lake Charles, LA

Home | Current Version | Previous Version | Text Only | Print | Product List | Glossary On
Versions: 1 2 3 4 5 6 7 8 9 10 11 12 13 14 15 16 17 18 19 20 21 22 23 24 25 26 27 28 29 30 31 32 33 34 35 36 37 38 39 40 41 42 43 44 45 46 47 48
000
ASUS44 KLCH 290310
RWRLCH
RWRLCH
REGIONAL WEATHER ROUNDUP
NATIONAL WEATHER SERVICE LAKE CHARLES LA
1000 PM CDT FRI AUG 28 2015

Note: "fair" indicates few or no clouds below 12,000 feet with no
significant weather and/or obstructions to visibility.


ACROSS SOUTHEAST TEXAS

CITY           SKY/WX    TMP DP  RH WIND       PRES   REMARKS
BEAUMONT       CLEAR     74  68  81 S5        30.00R
BEAUMONT CITY    N/A     74  68  81 S3        30.01R
ORANGE         CLEAR     73  71  95 CALM      30.02R
JASPER         CLEAR     75  70  85 CALM      30.02R
$$

ACROSS CENTRAL LOUISIANA

CITY           SKY/WX    TMP DP  RH WIND       PRES   REMARKS
LEESVILLE      CLEAR     77  64  63 SE6       30.00R
FULLERTON        N/A     73  60  63 CALM      29.99R
ALEXANDRIA INT CLEAR     74  63  68 CALM      29.99R
ESLER FIELD    CLEAR     70  63  78 CALM      30.00R
DERIDDER         N/A     79  62  55 CALM      30.02R
OAKDALE          N/A     67  66  96 CALM      30.01R
OPELOUSAS        N/A     69  65  89 CALM      30.00R
$$

ACROSS SOUTHWEST AND SOUTH CENTRAL LOUISIANA

CITY           SKY/WX    TMP DP  RH WIND       PRES   REMARKS
SULPHUR        CLEAR     76  69  79 S3        30.02R
LAKE CHARLES   CLEAR     76  67  73 S3        30.01R
CHENNAULT INT  CLEAR     72  66  83 E5        30.01
CAMERON PHI    CLEAR     82  63  51 S7        30.04R
DEQUINCY         N/A     72  65  78 CALM      30.01R
JENNINGS         N/A     75  65  70 SW3       30.01R
LAFAYETTE      CLEAR     77  65  66 CALM      30.00R
NEW IBERIA     CLEAR     74  67  78 CALM      30.00R
ABBEVILLE        N/A     74  64  71 CALM      30.00R
PATTERSON      CLEAR     72  66  83 CALM      30.01R
SALT POINT       N/A     77  70  79 CALM      29.99R
$$

SELECTED SITES ACROSS THE REGION

CITY           SKY/WX    TMP DP  RH WIND       PRES   REMARKS
HOUSTON BUSH   CLEAR     81  69  67 S9        29.99R
HOUSTON HOBBY  CLEAR     79  68  69 S6        29.99R
GALVESTON      CLEAR     82  68  62 SE9       30.01R
COLLEGE STAT   CLEAR     81  67  62 S6        29.98R
CONROE         CLEAR     78  66  66 SE6       29.99R
HUNTSVILLE     CLEAR     82  66  58 S3        29.98R
LUFKIN           N/A     76  60  57 CALM      29.98R
SHREVEPORT     CLEAR     73  63  70 CALM      29.99R
MONROE         CLEAR     71  60  68 E5        30.01R
NATCHEZ MS     CLEAR     72  63  73 CALM      30.03R
BATON ROUGE    PTCLDY    74  67  78 NE6       30.01R
N.O. INTL ARPT PTCLDY    80  64  58 E6        30.01R
SLIDELL        CLEAR     72  68  87 CALM      30.02R
$$

MARINE REPORTS

STATION/POSITION TIME  TEMP    WIND        PRES    VSBY  WAVE
                       AIR SEA DIR/SP/G                  HT/PER
                 (UTC) (F)     (DEG/KT/KT) (MB)    (MI)  (FT/S)
BUOY 30 S HIGH I 0250   84 86  150/  8/ 10 1015.7R         1
SEA RIM ST PARK  0300   83     160/  6/  8 1016.7R
PORT ARTHUR      NOT AVBL
SABINE PASS N    NOT AVBL
TEXAS POINT      NOT AVBL
CALCASIEU PASS   NOT AVBL
LK CHARLES BEACH NOT AVBL
MARSH ISLAND     0200   83     320/  4/  6   N/A           0
FRESH WATER LOCK NOT AVBL
AMERADA PASS     NOT AVBL
$$


USA.gov is the U.S. government's official web portal to all federal, state and local government web resources and services.